Location: Proctor
(47.8934°N, 114.3048°W)
Time: 22:05:37
(UTC+00:00)

Tiros 1 despin weight - Pass Details

Date: 02 July 2024
Orbit: 576 x 620 km, 48.2° (Epoch: 19 July)

Event Time Altitude Azimuth Distance (km) Brightness Sun altitude
Rises 19:20:13 0° 278° (W) 2,884 ? 64.7°
Reaches altitude 10° 19:22:31 10° 278° (W) 1,982 ? 64.8°
Maximum altitude 19:27:05 88° 195° (SSW) 626 ? 64.9°
Drops below altitude 10° 19:31:41 10° 101° (E) 1,986 ? 65.0°
Sets 19:33:59 0° 101° (E) 2,890 ? 65.0°
